FENGYUN 1C DEB, 36184

Orbit data source: Space-Track

FENGYUN 1C DEB, 36184 is space debris in SSO originally from a launch on Mon, 10 May 1999 UTC launched from the Taiyaun Space Center, China (TSC). Fengyun 1C debris stems from the Chinese weather satellite Fengyun-1C, which was intentionally destroyed by a Chinese anti-satellite missile in 2007. This event dramatically increased the amount of space debris, with thousands of trackable fragments posing hazards to satellites and human spaceflight. The Fengyun 1C debris cloud has become a focal point in discussions about space sustainability and the need for international regulations to prevent the creation of new debris.

Loading next visibility...
Identifier
36184, 1999-025DTH
Orbit
SSO
Country
Flag of CNCN / PRC
Related business
Manufacturer
Unknown
Mission
Spacecraft
Bus & Motor
Unknown
Mass
Unknown
Launch date (UTC)
1999-05-10 (27 years ago)
Launch vehicle
Unknown
Launch site
Taiyaun Space Center, China (TSC)
Object type
Payload
Rocket body
Debris
Shape & HBR
Unknown shape, 0.1 m
Radar Cross Section
Small (<0.1 m²)

Expand to show TLE details & history
Last TLE update: 7 months ago

TLE from 7 months ago
0 FENGYUN 1C DEB
1 36184U 99025DTH 25244.76941472  .00004405  00000-0  24119-2 0  9996
2 36184  98.5334 240.6504 0129211 268.9017  89.7348 14.08223523610787
Epoch: 2025-09-01T18:27Z
TLE epoch observation values (Epoch: 2025-09-01T18:27:57.431Z)
Latitude
-0.00003°
Longitude
-17.50914°
Altitude
869.138 km
Speed
7.417 km/s
True Right ascension
16h 02m 36s
True Declination
0° 00' 00"
Sunlit
Object was in daylight at epoch
Visualization orbit readout
Latitude
Unknown
Longitude
Unknown
Altitude
Unknown
Speed
Unknown
Apparent Right ascension
Unknown
Apparent Declination
Unknown
Sunlit
N/A
Visualization observer readout
Local Sidereal Time
23:36:28
Azimuth
Unknown
Elevation
Unknown
Doppler factor
Unknown
Orbital elements
Apogee altitude
956.181 km
Perigee altitude
769.064 km
Semi-major axis
7,240.76 km
Eccentricity
0.01292
Inclination
98.5334°
RAAN
240.6504°
Arg. of periapsis
268.9017°
True anomaly
91.21538°
Mean anomaly
89.7348°
Eccentric anomaly
90.4751°
Mean motion
3.52263 °/min
Orbital period
102.2 mins
BSTAR
0.0024119
Loading maneuver chart data...
Computing Atmospheric mass density...

Documentation

Showing up to 5 results
|